Location: Henham
(51.9333°N, 0.2500°E)
Time: 02:09:42
(UTC+00:00)

CENTAUR R/B - Pass Details

Date: 23 October 2019
Orbit: 781 x 1407 km, 63.4° (Epoch: 10 November)

Event Time Altitude Azimuth Distance (km) Brightness Sun altitude
Rises 20:37:22 0° 244° (WSW) 3,555 5.8 -35.0°
Reaches altitude 10° 20:39:48 10° 248° (WSW) 2,691 5.2 -35.3°
Enters shadow 20:45:41 56° 314° (NW) 1,250 3.1 -36.1°
